User: anonymous   Login
Location: Clatteringshaws Loch
(55.0508°N, 4.2860°W)
Time: 23:08:03
(UTC+01:00)
Language:

Sapphire - Orbit

View from above orbital plane
View from above orbital plane
View from above satellite
View from above satellite

Ground track
Ground track

The orbit data is extracted from the following two-line orbital elements,

1 26932U 01043D   15147.67054874 -.00000008  00000-0  28874-4 0  9991
2 26932 067.0565 231.3476 0006291 248.9412 111.1016 14.30146158712900
Epoch (UTC): 27 May 2015 16:05:35
Eccentricity: 0.0006291
inclination: 67.0565°
perigee height: 787 km
apogee height: 796 km
right ascension of ascending node: 231.3476°
argument of perigee: 248.9412°
revolutions per day: 14.30146158
mean anomaly at epoch: 111.1016°
orbit number at epoch: 71290

The dashed part of the orbit path shows where the satellite is in the earth's shadow,  

DLR